Tracking 18030 objects as of 28-March-2017
HD Live streaming from Space Station
objects crossing your sky now

SL-8 DEB

Track SL-8 DEB now!
10-day predictions


NORAD ID: 18545
Int'l Code: 1986-100C
Perigee: 883.1 km
Apogee: 902.9 km
Inclination: 82.9 °
Period: 102.7 minutes
Semi major axis: 7263 km
RCS: 0.0131 m2 (small)
Launch date: December 17, 1986
Source: Commonwealth of Independent States (former USSR) (CIS)
Launch site: PLESETSK MISSILE AND SPACE COMPLEX (PKMTR)

Note: This is SATELLITE DEBRIS
Your satellite tracking list
Your tracking list is empty





NASA's NSSDC Master Catalog

Two Line Element Set (TLE):
1 18545U 86100C   17086.43229022 +.00000536 +00000-0 +33916-3 0  9993
2 18545 082.9263 244.2189 0013613 007.7026 021.2451 14.02304111532362
Source of the keplerian elements: AFSPC